1375142427192,2.16863
1375142487192,2.16399
1375142547192,2.16803
1375142607192,2.15671
1375142667192,2.16131
1375142727192,2.15499
1375142787192,2.16505
1375142847192,2.17608
1375142907192,2.14302
1375142967192,2.10226
1375143027192,2.16313
1375143087192,2.17150
1375143147192,2.14822
1375143207192,2.13762
1375143267192,2.13970
1375143327192,2.15957
1375143387192,2.13746
1375143447192,2.12263
1375143507192,2.16802
1375143567192,2.15950
1375143627192,2.13540
1375143687192,2.15291
1375143747192,2.29229
1375143807192,2.13434
1375143867192,2.13261
1375143927192,2.15035
1375143987192,2.12883
1375144047192,2.13027
1375144107192,2.12896
1375144167192,2.12670
1375144227192,2.52213
1375144287192,2.13301
1375144347192,2.12143
1375144407192,2.12963
1375144467192,2.12151
1375144527192,2.10442
1375144587192,2.10268
1375144647192,2.13217
1375144707192,2.09494
1375144767192,2.09697
1375144827192,2.11135
1375144887192,2.12238
1375144947192,2.10703
1375145007192,2.10436
1375145067192,2.07762
1375145127192,2.09131
1375145187192,2.11632
1375145247192,2.12898
1375145307192,2.11060
1375145367192,2.11935
1375145427192,2.11880
1375145487192,2.10200
1375145547192,2.10615
1375145607192,2.09889
1375145667192,2.11715
1375145727192,2.12285
1375145787192,2.12023
1375145847192,2.09858
1375145907192,2.10278
1375145967192,2.07884
1375146027202,2.08741
1375146087202,2.11167
1375146147202,2.09469
1375146207202,2.10449
1375146267202,2.09517
1375146327202,2.09240
1375146387202,2.09340
1375146447202,2.10214
1375146507202,2.10150
1375146567202,2.11953
1375146627202,2.11410
1375146687202,2.11265
1375146747202,2.09912
1375146807202,2.14697
1375146867202,2.13465
1375146927202,2.12505
1375146987202,2.11240
1375147047202,2.12908
1375147107202,2.12471
1375147167202,2.12164
1375147227202,2.10775
1375147287202,2.11654
1375147347202,2.11775
1375147407202,2.13111
1375147467202,2.14719
1375147527202,2.13225
1375147587202,2.09157
1375147647202,2.12262
1375147707202,2.15703
1375147767202,2.08870
1375147827202,2.11748
1375147887202,2.10030
1375147947202,2.10476
1375148007202,2.10055
1375148067202,2.11598
1375148127202,2.12030
1375148187202,2.11029
1375148247202,2.09872
1375148307202,2.12911
1375148367202,2.12619
1375148427202,2.11841
1375148487202,2.12467
1375148547202,2.12400
1375148607202,2.07887
1375148667202,2.10223
1375148727202,2.10033
1375148787202,2.10376
1375148847202,2.09113
1375148907202,2.08749
1375148967202,2.11957
1375149027202,2.12368
1375149087202,2.13276
1375149147202,2.11078
1375149207202,2.11193
1375149267202,2.12224
1375149327202,2.10799
1375149387202,2.11163
1375149447202,2.10545
1375149507202,2.09563
1375149567202,2.09043
1375149627212,2.09982
1375149687212,2.10696
1375149747212,2.09388
1375149807212,2.09580
1375149867212,2.14910
1375149927212,2.08750
1375149987212,2.11012
1375150047212,2.09244
1375150107212,2.10859
1375150167212,2.08618
1375150227212,2.08108
1375150287212,2.09578
1375150347212,2.09633
1375150407212,2.10743
1375150467212,2.13404
1375150527212,2.09719
1375150587212,2.12827
1375150647212,2.10064
1375150707212,2.10149
1375150767212,2.08942
1375150827212,2.09291
1375150887212,2.08129
1375150947212,2.13723
1375151007212,2.09818
1375151067212,2.09784
1375151127212,2.12250
1375151187212,2.09861
1375151247212,2.10510
1375151307212,2.10157
1375151367212,2.09426
1375151427212,2.11700
1375151487212,2.10090
1375151547212,2.11098
1375151607212,2.11673
1375151667212,2.11290
1375151727212,2.27094
1375151787212,2.11803
1375151847212,2.11444
1375151907212,2.13293
1375151967212,2.09716
1375152027212,2.08571
1375152087212,2.10904
1375152147212,2.10980
1375152207212,2.09635
1375152267212,2.12672
1375152327212,2.08086
1375152387212,2.11661
1375152447212,2.10482
1375152507212,2.09610
1375152567212,2.10377
1375152627212,2.10152
1375152687212,2.11670
1375152747212,2.08756
1375152807212,2.11173
1375152867212,2.11593
1375152927212,2.10133
1375152987212,2.11101
1375153047212,2.11001
1375153107212,2.11255
1375153167212,2.11169
1375153227221,2.10835
1375153287221,2.10702
1375153347221,2.12032
1375153407221,2.11077
1375153467221,2.11060
1375153527221,2.12990
1375153587221,2.10804
1375153647221,2.11425
1375153707221,2.14591
1375153767221,2.07345
1375153827221,2.10980
1375153887221,2.08113
1375153947221,2.12320
1375154007221,2.10443
1375154067221,2.12615
1375154127221,2.10404
1375154187221,2.07690
1375154247221,2.10857
1375154307221,2.10070
1375154367221,2.07680
1375154427221,2.09934
1375154487221,2.10623
1375154547221,2.08054
1375154607221,2.11180
1375154667221,2.10839
1375154727221,2.10915
1375154787221,2.08840
1375154847221,2.10135
1375154907221,2.07466
1375154967221,2.11098
1375155027221,2.08033
1375155087221,2.10291
1375155147221,2.09000
1375155207221,2.08819
1375155267221,2.08914
1375155327221,2.10656
1375155387221,2.07503
1375155447221,2.10265
1375155507221,2.09618
1375155567221,2.10029
1375155627221,2.11403
1375155687221,2.07210
1375155747221,2.11276
1375155807221,2.10733
1375155867221,2.09423
1375155927221,2.10479
1375155987221,2.07899
1375156047221,2.14823
1375156107221,2.11780
1375156167221,2.11371
1375156227221,2.08519
1375156287221,2.13255
1375156347221,2.09512
1375156407221,2.09984
1375156467221,2.10471
1375156527221,2.09712
1375156587221,2.08695
1375156647221,2.11189
1375156707221,2.09425
1375156767221,2.08393
1375156827230,2.07394
1375156887230,2.09351
1375156947230,2.06639
1375157007230,2.08505
1375157067230,2.09879
1375157127230,2.09396
1375157187230,2.08958
1375157247230,2.07935
1375157307230,2.09208
1375157367230,2.09174
1375157427230,2.10085
1375157487230,2.09152
1375157547230,2.12229
1375157607230,2.09574
1375157667230,2.09478
1375157727230,2.10003
1375157787230,2.07286
1375157847230,2.07771
1375157907230,2.10123
1375157967230,2.11686
1375158027230,2.08424
1375158087230,2.09290
1375158147230,2.08227
1375158207230,2.08342
1375158267230,2.10064
1375158327230,2.11035
1375158387230,2.09604
1375158447230,2.09240
1375158507230,2.08347
1375158567230,2.13571
1375158627230,2.08851
1375158687230,2.09308
1375158747230,2.09498
1375158807230,2.07479
1375158867230,2.10301
1375158927230,2.11665
1375158987230,2.09568
1375159047230,2.10678
1375159107230,2.08562
1375159167230,2.11913
1375159227230,2.34550
1375159287230,2.13408
1375159347230,2.09018
1375159407230,2.11354
1375159467230,2.08667
1375159527230,2.12238
1375159587230,2.08337
1375159647230,2.13325
1375159707230,2.11134
1375159767230,2.13683
1375159827230,2.11620
1375159887230,2.10223
1375159947230,2.10914
1375160007230,2.12342
1375160067230,2.12542
1375160127230,2.12581
1375160187230,2.12254
1375160247230,2.11246
1375160307230,2.10962
1375160367230,2.12635
1375160427239,2.12949
1375160487239,2.14468
1375160547239,2.11409
1375160607239,2.10384
1375160667239,2.09683
1375160727239,2.14329
1375160787239,2.12961
1375160847239,2.13449
1375160907239,2.12426
1375160967239,2.13845
1375161027239,2.12552
1375161087239,2.14289
1375161147239,2.10712
1375161207239,2.13460
1375161267239,2.11599
1375161327239,2.11773
1375161387239,2.14304
1375161447239,2.11326
1375161507239,2.13764
1375161567239,2.11976
1375161627239,2.13443
1375161687239,2.15246
1375161747239,2.10973
1375161807239,2.12764
1375161867239,2.11251
1375161927239,2.11612
1375161987239,2.11674
1375162047239,2.11726
1375162107239,2.12156
1375162167239,2.13856
1375162227239,2.12393
1375162287239,2.12142
1375162347239,2.11705
1375162407239,2.13289
1375162467239,2.11052
1375162527239,2.14477
1375162587239,2.14552
1375162647239,2.13290
1375162707239,2.12784
1375162767239,2.12721
1375162827239,2.15181
1375162887239,2.11741
1375162947239,2.14447
1375163007239,2.12751
1375163067239,2.15205
1375163127239,2.09589
1375163187239,2.15311
1375163247239,2.14017
1375163307239,2.13014
1375163367239,2.12385
1375163427239,2.10958
1375163487239,2.13874
1375163547239,2.13278
1375163607239,2.12531
1375163667239,2.15152
1375163727239,2.15205
1375163787239,2.14409
1375163847239,2.16140
1375163907239,2.13329
1375163967239,2.12783
1375164027248,2.13689
1375164087248,2.12816
1375164147248,2.12299
1375164207248,2.15713
1375164267248,2.14259
1375164327248,2.12365
1375164387248,2.11522
1375164447248,2.13504
1375164507248,2.12027
1375164567248,2.10795
1375164627248,2.13362
1375164687248,2.11939
1375164747248,2.12809
1375164807248,2.11299
1375164867248,2.12313
1375164927248,2.11638
1375164987248,2.11359
1375165047248,2.13135
1375165107248,2.14251
1375165167248,2.11683
1375165227248,2.12381
1375165287248,2.15211
1375165347248,2.14823
1375165407248,2.12100
1375165467248,2.13447
1375165527248,2.13979
1375165587248,2.11493
1375165647248,2.12690
1375165707248,2.11243
1375165767248,2.12122
1375165827248,2.13464
1375165887248,2.12042
1375165947248,2.14218
1375166007248,2.16135
1375166067248,2.09912
1375166127248,2.13176
1375166187248,2.15113
1375166247248,2.14544
1375166307248,2.13474
1375166367248,2.13292
1375166427248,2.14305
1375166487248,2.13841
1375166547248,2.13197
1375166607248,2.15095
1375166667248,2.12410
1375166727248,2.11616
1375166787248,2.11661
1375166847248,2.15564
1375166907248,2.12365
1375166967248,2.14542
1375167027248,2.12364
1375167087248,2.14679
1375167147248,2.14737
1375167207248,2.14120
1375167267248,2.13512
1375167327248,2.15476
1375167387248,2.15051
1375167447248,2.15638
1375167507248,2.15561
1375167567248,2.15917
1375167627257,2.12501
1375167687257,2.14857
1375167747257,2.12493
1375167807257,2.13400
1375167867257,2.13294
1375167927257,2.17174
1375167987257,2.14964
1375168047257,2.15673
1375168107257,2.12799
1375168167257,2.15218
1375168227257,2.13043
1375168287257,2.14330
1375168347257,2.15928
1375168407257,2.14407
1375168467257,2.15028
1375168527257,2.15161
1375168587257,2.17034
1375168647257,2.16403
1375168707257,2.12971
1375168767257,2.15160
1375168827257,2.14341
1375168887257,2.15365
1375168947257,2.13819
1375169007257,2.17446
1375169067257,2.15924
1375169127257,2.24834
1375169187257,2.15454
1375169247257,2.16500
1375169307257,2.14926
1375169367257,2.17543
1375169427257,2.16161
1375169487257,2.18063
1375169547257,2.18137
1375169607257,2.14886
1375169667257,2.13864
1375169727257,2.18298
1375169787257,2.15387
1375169847257,2.16232
1375169907257,2.15050
1375169967257,2.16210
1375170027257,2.16566
1375170087257,2.17296
1375170147257,2.15737
1375170207257,2.13974
1375170267257,2.17463
1375170327257,2.14970
1375170387257,2.14477
1375170447257,2.15653
1375170507257,2.17453
1375170567257,2.17781
1375170627257,2.17735
1375170687257,2.12101
1375170747257,2.13977
1375170807257,2.17498
1375170867257,2.14515
1375170927257,2.15660
1375170987257,2.17398
1375171047257,2.16332
1375171107257,2.17046
1375171167257,2.16178
1375171227266,2.15452
1375171287266,2.17006
1375171347266,2.15970
1375171407266,2.12912
1375171467266,2.16933
1375171527266,2.14863
1375171587266,2.26514
1375171647266,2.24372
1375171707266,2.17098
1375171767266,2.14415
1375171827266,2.14965
1375171887266,2.15780
1375171947266,2.16038
1375172007266,2.14511
1375172067266,2.15769
1375172127266,2.17550
1375172187266,2.15089
1375172247266,2.15616
1375172307266,2.16677
1375172367266,2.16498
1375172427266,2.15402
1375172487266,2.14402
1375172547266,2.14682
1375172607266,2.15627
1375172667266,2.15995
1375172727266,2.14060
1375172787266,2.17904
1375172847266,2.13844
1375172907266,2.14966
1375172967266,2.15378
1375173027266,2.12337
1375173087266,2.15496
1375173147266,2.26275
1375173207266,2.13684
1375173267266,2.17294
1375173327266,2.11267
1375173387266,2.17791
1375173447266,2.13653
1375173507266,2.16715
1375173567266,2.13907
1375173627266,2.14668
1375173687266,2.16269
1375173747266,2.16336
1375173807266,2.15855
1375173867266,2.17528
1375173927266,2.14510
1375173987266,2.17734
1375174047266,2.16071
1375174107266,2.16765
1375174167266,2.16564
1375174227266,2.16658
1375174287266,2.16387
1375174347266,2.16598
1375174407266,2.15483
1375174467266,2.18541
1375174527266,2.15901
1375174587266,2.16143
1375174647266,2.15467
1375174707266,2.16387
1375174767266,2.17177
1375174827275,2.14561
1375174887275,2.17193
1375174947275,2.16841
1375175007275,2.17882
1375175067275,2.18012
1375175127275,2.14096
1375175187275,2.16451
1375175247275,2.15192
1375175307275,2.19873
1375175367275,2.16956
1375175427275,2.17043
1375175487275,2.18160
1375175547275,2.16995
1375175607275,2.16273
1375175667275,2.16483
1375175727275,2.18035
1375175787275,2.13257
1375175847275,2.19347
1375175907275,2.17239
1375175967275,2.19363
1375176027275,2.17254
1375176087275,2.18905
1375176147275,2.20950
1375176207275,2.16381
1375176267275,2.16653
1375176327275,2.19911
1375176387275,2.17298
1375176447275,2.17973
1375176507275,2.16013
1375176567275,2.18557
1375176627275,2.17799
1375176687275,2.17091
1375176747275,2.17632
1375176807275,2.19086
1375176867275,2.18071
1375176927275,2.18581
1375176987275,2.18627
1375177047275,2.15174
1375177107275,2.14164
1375177167275,2.16385
1375177227275,2.21370
1375177287275,2.19044
1375177347275,2.16969
1375177407275,2.21689
1375177467275,2.17910
1375177527275,2.19026
1375177587275,2.16712
1375177647275,2.18922
1375177707275,2.18209
1375177767275,2.43633
1375177827275,2.17763
1375177887275,2.18182
1375177947275,2.17615
1375178007275,2.17248
1375178067275,2.18938
1375178127275,2.17825
1375178187275,2.21068
1375178247275,2.17385
1375178307275,2.17114
1375178367275,2.17456
1375178427284,2.17222
1375178487284,2.21393
1375178547284,2.21194
1375178607284,2.23359
1375178667284,2.19951
1375178727284,2.19307
1375178787284,2.18812
1375178847284,2.19673
1375178907284,2.18449
1375178967284,2.20876
1375179027284,2.19565
1375179087284,2.18407
1375179147284,2.16061
1375179207284,2.17404
1375179267284,2.20963
1375179327284,2.19197
1375179387284,2.19238
1375179447284,2.17499
1375179507284,2.18914
1375179567284,2.21122
1375179627284,2.20412
1375179687284,2.19495
1375179747284,2.20350
1375179807284,2.20363
1375179867284,2.19518
1375179927284,2.18555
1375179987284,2.23848
1375180047284,2.22287
1375180107284,2.23045
1375180167284,2.19084
1375180227284,2.21551
1375180287284,2.18997
1375180347284,2.24198
1375180407284,2.23084
1375180467284,2.19712
1375180527284,2.24092
1375180587284,2.19590
1375180647284,2.22224
1375180707284,2.23274
1375180767284,2.21439
1375180827284,2.22136
1375180887284,2.20587
1375180947284,2.22827
1375181007284,2.21867
1375181067284,2.21035
1375181127284,2.23671
1375181187284,2.25546
1375181247284,2.25514
1375181307284,2.24127
1375181367284,2.21057
1375181427284,2.22278
1375181487284,2.24068
1375181547284,2.23606
1375181607284,2.21805
1375181667284,2.19221
1375181727284,2.20391
1375181787284,2.19152
1375181847284,2.20389
1375181907284,2.22205
1375181967284,2.17316
1375182027294,2.20902
1375182087294,2.23634
1375182147294,2.23184
1375182207294,2.23218
1375182267294,2.21204
1375182327294,2.23174
1375182387294,2.22609
1375182447294,2.22720
1375182507294,2.20846
1375182567294,2.22504
1375182627294,2.17626
1375182687294,2.18396
1375182747294,2.23434
1375182807294,2.21352
1375182867294,2.22911
1375182927294,2.22089
1375182987294,2.21574
1375183047294,2.21881
1375183107294,2.22605
1375183167294,2.20167
1375183227294,2.22591
1375183287294,2.19420
1375183347294,2.15905
1375183407294,2.22001
1375183467294,2.18726
1375183527294,2.22048
1375183587294,2.18242
1375183647294,2.22586
1375183707294,2.20284
1375183767294,2.21374
1375183827294,2.17567
1375183887294,2.20088
1375183947294,2.20047
1375184007294,2.21753
1375184067294,2.23050
1375184127294,2.21269
1375184187294,2.20176
1375184247294,2.18088
1375184307294,2.22063
1375184367294,2.20633
1375184427294,2.21382
1375184487294,2.21009
1375184547294,2.20601
1375184607294,2.20165
1375184667294,2.19594
1375184727294,2.19667
1375184787294,2.19151
1375184847294,2.17967
1375184907294,2.24691
1375184967294,2.18107
1375185027294,2.20534
1375185087294,2.19760
1375185147294,2.19592
1375185207294,2.20705
1375185267294,2.20755
1375185327294,2.18543
1375185387294,2.18535
1375185447294,2.19427
1375185507294,2.18866
1375185567294,2.18508
1375185627303,2.19223
1375185687303,2.20428
1375185747303,2.16694
1375185807303,2.21741
1375185867303,2.20128
1375185927303,2.19795
1375185987303,2.19466
1375186047303,2.17580
1375186107303,2.20327
1375186167303,2.19204
1375186227303,2.18059
1375186287303,2.20720
1375186347303,2.19379
1375186407303,2.19049
1375186467303,2.20824
1375186527303,2.18148
1375186587303,2.19169
1375186647303,2.19349
1375186707303,2.20165
1375186767303,2.21472
1375186827303,2.22546
1375186887303,2.20417
1375186947303,2.19208
1375187007303,2.22941
1375187067303,2.19782
1375187127303,2.44464
1375187187303,2.18797
1375187247303,2.19375
1375187307303,2.20500
1375187367303,2.17085
1375187427303,2.19716
1375187487303,2.18565
1375187547303,2.20853
1375187607303,2.17700
1375187667303,2.24377
1375187727303,2.18842
1375187787303,2.23021
1375187847303,2.21183
1375187907303,2.20017
1375187967303,2.22198
1375188027303,2.21739
1375188087303,2.19544
1375188147303,2.23659
1375188207303,2.18552
1375188267303,2.20480
1375188327303,2.19651
1375188387303,2.20045
1375188447303,2.18536
1375188507303,2.22354
1375188567303,2.20690
1375188627303,2.20625
1375188687303,2.24200
1375188747303,2.19248
1375188807303,2.21057
1375188867303,2.23247
1375188927303,2.24384
1375188987303,2.19464
1375189047303,2.22208
1375189107303,2.24768
1375189167303,2.19305
1375189227312,2.19885
1375189287312,2.23716
1375189347312,2.21723
1375189407312,2.17710
1375189467312,2.22122
1375189527312,2.22420
1375189587312,2.19091
1375189647312,2.19140
1375189707312,2.21265
1375189767312,2.21210
1375189827312,2.21194
1375189887312,2.22462
1375189947312,2.20452
1375190007312,2.19351
1375190067312,2.19015
1375190127312,2.19679
1375190187312,2.21351
1375190247312,2.24785
1375190307312,2.23294
1375190367312,2.21336
1375190427312,2.24350
1375190487312,2.21233
1375190547312,2.19142
1375190607312,2.21791
1375190667312,2.20099
1375190727312,2.19774
1375190787312,2.19106
1375190847312,2.20591
1375190907312,2.22937
1375190967312,2.18745
1375191027312,2.23660
1375191087312,2.22162
1375191147312,2.19737
1375191207312,2.19428
1375191267312,2.18825
1375191327312,2.24337
1375191387312,2.21216
1375191447312,2.19292
1375191507312,2.17893
1375191567312,2.18680
1375191627312,2.19416
1375191687312,2.20759
1375191747312,2.17965
1375191807312,2.19309
1375191867312,2.21066
1375191927312,2.20933
1375191987312,2.20145
1375192047312,2.19249
1375192107312,2.17633
1375192167312,2.18577
1375192227312,2.18820
1375192287312,2.20107
1375192347312,2.16985
1375192407312,2.19072
1375192467312,2.34568
1375192527312,2.21864
1375192587312,2.19324
1375192647312,2.19798
1375192707312,2.19743
1375192767312,2.20114
1375192827322,2.25001
1375192887322,2.18729
1375192947322,2.17908
1375193007322,2.22052
1375193067322,2.18363
1375193127322,2.17979
1375193187322,2.15683
1375193247322,2.16097
1375193307322,2.16205
1375193367322,2.19303
1375193427322,2.18731
1375193487322,2.19205
1375193547322,2.17008
1375193607322,2.16412
1375193667322,2.17092
1375193727322,2.18943
1375193787322,2.17396
1375193847322,2.15881
1375193907322,2.18017
1375193967322,2.20447
1375194027322,2.19526
1375194087322,2.17913
1375194147322,2.15971
1375194207322,2.18168
1375194267322,2.18458
1375194327322,2.16828
1375194387322,2.17819
1375194447322,2.15760
1375194507322,2.16533
1375194567322,2.17963
1375194627322,2.17771
1375194687322,2.18659
1375194747322,2.18800
1375194807322,2.17935
1375194867322,2.16902
1375194927322,2.17110
1375194987322,2.15432
1375195047322,2.15553
1375195107322,2.16462
1375195167322,2.19220
1375195227322,2.17275
1375195287322,2.17986
1375195347322,2.16728
1375195407322,2.16794
1375195467322,2.19205
1375195527322,2.17804
1375195587322,2.18742
1375195647322,2.20000
1375195707322,2.16940
1375195767322,2.14569
1375195827322,2.16650
1375195887322,2.17137
1375195947322,2.17884
1375196007322,2.16023
1375196067322,2.16119
1375196127322,2.18314
1375196187322,2.18111
1375196247322,2.19232
1375196307322,2.20059
1375196367322,2.15009
1375196427331,2.16850
1375196487331,2.16905
1375196547331,2.14478
1375196607331,2.18015
1375196667331,2.12138
1375196727331,2.15530
1375196787331,2.17880
1375196847331,2.19049
1375196907331,2.19663
1375196967331,2.17832
1375197027331,2.18984
1375197087331,2.12467
1375197627331,2.16564
1375197687331,2.12738
1375197747331,2.16812
1375197807331,2.18436
1375197867331,2.16060
1375197927331,2.16918
1375197987331,2.16839
1375198047331,2.15618
1375198107331,2.16744
1375198167331,2.20309
1375198227331,2.21384
1375198287331,2.15367
1375198347331,2.18408
1375198407331,2.19747
1375198467331,2.16823
1375198527331,2.18242
1375198587332,2.18201
1375198647332,2.15459
1375198707332,2.17686
1375198767331,2.16671
1375198827331,2.16695
1375198887331,2.15942
1375198947331,2.18293
1375199007331,2.15981
1375199067331,2.20138
1375199127331,2.13688
1375199187331,2.17110
1375199247331,2.15410
1375199307331,2.18476
1375199367331,2.15980
1375199427331,2.16210
1375199487331,2.14427
1375199547331,2.16859
1375199607331,2.17025
1375199667331,2.17348
1375199727331,2.14405
1375199787331,2.17305
1375199847331,2.14606
1375199907332,2.13216
1375199967332,2.15032
1375200027342,2.14539
1375200087342,2.15064
1375200147342,2.15632
1375200207342,2.16819
1375200267342,2.13408
1375200327342,2.15500
1375200387342,2.16922
1375200447342,2.16069
1375200507342,2.16729
1375200567342,2.15759
1375200627342,2.17052
1375200687342,2.18637
1375200747342,2.17908
1375200807342,2.16615
1375200867342,2.16980
1375200927342,2.16178
1375200987342,2.16045
1375201047342,2.13882
1375201107342,2.15758
1375201167342,2.19181
1375201227342,2.15974
1375201287342,2.14575
1375201347342,2.23414
1375201407342,2.15691
1375201467342,2.16261
1375201527342,2.16544
1375201587342,2.14039
1375201647342,2.17846
1375201707342,2.18954
1375201767342,2.18983
1375201827342,2.17493
1375201887342,2.21209
1375201947342,2.14146
1375202007342,2.18301
1375202067342,2.14874
1375202127342,2.16779
1375202187342,2.18880
1375202247342,2.18577
1375202307342,2.17535
1375202367342,2.18135
1375202427342,2.16816
1375202487342,2.15918
1375202547342,2.18819
1375202607342,2.17506
1375202667342,2.19782
1375202727342,2.19916
1375202787342,2.18460
1375202847342,2.19325
1375202907342,2.17280
1375202967342,2.17785
1375203027342,2.18408
1375203087342,2.18225
1375203147342,2.18203
1375203207342,2.19220
1375203267342,2.19507
1375203327342,2.21339
1375203387342,2.18049
1375203447342,2.17696
1375203507342,2.18367
1375203567342,2.19514
1375203627352,2.15878
1375203687352,2.20529
1375203747352,2.18065
1375203807352,2.17316
1375203867352,2.21977
1375203927352,2.18724
1375203987352,2.18855
1375204047352,2.18978
1375204107352,2.21003
1375204167352,2.20274
1375204227352,2.20311
1375204287352,2.20101
1375204347352,2.18484
1375204407352,2.21631
1375204467352,2.19438
1375204527352,2.19249
1375204587352,2.20108
1375204647352,2.21075
1375204707352,2.19598
1375204767352,2.21207
1375204827352,2.21570
1375204887352,2.20456
1375204947352,2.19572
1375205007352,2.19644
1375205067352,2.20287
1375205127352,2.21044
1375205187352,2.20875
1375205247352,2.20025
1375205307352,2.21515
1375205367352,2.20718
1375205427352,2.18616
1375205487352,2.24256
1375205547352,2.22106
1375205607352,2.21435
1375205667352,2.21723
1375205727352,2.25187
1375205787352,2.22431
1375205847352,2.23457
1375205907352,2.21845
1375205967352,2.25161
1375206027352,2.23206
1375206087352,2.22708
1375206147352,2.24772
1375206207352,2.22306
1375206267352,2.25408
1375206327352,2.21996
1375206387352,2.24309
1375206447352,2.24741
1375206507352,2.23775
1375206567352,2.26333
1375206627352,2.24647
1375206687352,2.24416
1375206747352,2.20923
1375206807352,2.21861
1375206867352,2.22666
1375206927352,2.25064
1375206987352,2.23532
1375207047352,2.23528
1375207107352,2.24002
1375207167352,2.21300
1375207227363,2.23028
1375207287363,2.23119
1375207347363,2.25075
1375207407363,2.22535
1375207467363,2.26501
1375207527363,2.24132
1375207587363,2.26222
1375207647363,2.22362
1375207707363,2.23051
1375207767363,2.24741
1375207827363,2.24467
1375207887363,2.25217
1375207947363,2.24705
1375208007363,2.21327
1375208067363,2.27078
1375208127363,2.22243
1375208187363,2.25046
1375208247363,2.22872